SCP
0 0 0 0 0 0 0 0 0 0 0 0 0 0 0 0 0 0 0 0 0 0 0 0 0 0 0 0 0 0 0 0 0 0 0 0 0 0 0 0 0 0 0
0 0 0 0 0 0 0 0 0 0 0 0 0 0 0 0 0 0 0 0 0 0 0 0 0 0 0 0 0 0 0 0 0 0 0 0 0 0 0 0 0 0 0
0 0 0 0 0 0 0 0 0 0 0 0 0 0 0 0 0 0 0 0 0 0 0 0 0 0 0 0 0 0 0 0 0 0 0 0 0 0 0 0 0 0 0
0 0 0 0 0 0 0 0 0 0 0 0 0 0 0 0 0 0 0 0 0 0 0 0 0 0 0 0 0 0 0 0 0 0 0 0 0 0 0 0 0 0 0
0 0 0 0 0 0 0 0 0 0 0 0 0 0 0 0 0 0 0 0 0 0 0 0 0 0 0 0 0 0 0 0 0 0 0 0 0 0 0 0 0 0 0
0 0 0 0 0 0 0 0 0 0 0 0 0 0 0 0 0 0 0 0 0 0 0 0 0 0 0 0 0 0 0 0 0 0 0 0 0 0 0 0 0 0 0
0 0 0 0 0 0 0 0 0 0 0 0 0 0 0 0 0 0 0 0 0 0 0 0 0 0 0 0 0 0 0 0 0 0 0 0 0 0 0 0 0 0 0
0 0 0 0 0 0 0 0 0 0 0 0 0 0 0 0 0 0 0 0 0 0 0 0 0 0 0 0 0 0 0 0 0 0 0 0 0 0 0 0 0 0 0
0 0 0 0 0 0 0 0 0 0 0 0 0 0 0 0 0 0 0 0 0 0 0 0 0 0 0 0 0 0 0 0 0 0 0 0 0 0 0 0 0 0 0
0 0 0 0 0 0 0 0 0 0 0 0 0 0 0 0 0 0 0 0 0 0 0 0 0 0 0 0 0 0 0 0 0 0 0 0 0 0 0 0 0 0 0
0 0 0 0 0 0 0 0 0 0 0 0 0 0 0 0 0 0 0 0 0 0 0 0 0 0 0 0 0 0 0 0 0 0 0 0 0 0 0 0 0 0 0
0 0 0 0 0 0 0 0 0 0 0 0 0 0 0 0 0 0 0 0 0 0 0 0 0 0 0 0 0 0 0 0 0 0 0 0 0 0 0 0 0 0 0
0 0 0 0 0 0 0 0 0 0 0 0 0 0 0 0 0 0 0 0 0 0 0 0 0 0 0 0 0 0 0 0 0 0 0 0 0 0 0 0 0 0 0
0 0 0 0 0 0 0 0 0 0 0 0 0 0 0 0 0 0 0 0 0 0 0 0 0 0 0 0 0 0 0 0 0 0 0 0 0 0 0 0 0 0 0
0 0 0 0 0 0 0 0 0 0 0 0 0 0 0 0 0 0 0 0 0 0 0 0 0 0 0 0 0 0 0 0 0 0 0 0 0 0 0 0 0 0 0
0 0 0 0 0 0 0 0 0 0 0 0 0 0 0 0 0 0 0 0 0 0 0 0 0 0 0 0 0 0 0 0 0 0 0 0 0 0 0 0 0 0 0
0 0 0 0 0 0 0 0 0 0 0 0 0 0 0 0 0 0 0 0 0 0 0 0 0 0 0 0 0 0 0 0 0 0 0 0 0 0 0 0 0 0 0
0 0 0 0 0 0 0 0 0 0 0 0 0 0 0 0 0 0 0 0 0 0 0 0 0 0 0 0 0 0 0 0 0 0 0 0 0 0 0 0 0 0 0
0 0 0 0 0 0 0 0 0 0 0 0 0 0 0 0 0 0 0 0 0 0 0 0 0 0 0 0 0 0 0 0 0 0 0 0 0 0 0 0 0 0 0
0 0 0 0 0 0 0 0 0 0 0 0 0 0 0 0 0 0 0 0 0 0 0 0 0 0 0 0 0 0 0 0 0 0 0 0 0 0 0 0 0 0 0
0 0 0 0 0 0 0 0 0 0 0 0 0 0 0 0 0 0 0 0 0 0 0 0 0 0 0 0 0 0 0 0 0 0 0 0 0 0 0 0 0 0 0
0 0 0 0 0 0 0 0 0 0 0 0 0 0 0 0 0 0 0 0 0 0 0 0 0 0 0 0 0 0 0 0 0 0 0 0 0 0 0 0 0 0 0
0 0 0 0 0 0 0 0 0 0 0 0 0 0 0 0 0 0 0 0 0 0 0 0 0 0 0 0 0 0 0 0 0 0 0 0 0 0 0 0 0 0 0
0 0 0 0 0 0 0 0 0 0 0 0 0 0 0 0 0 0 0 0 0 0 0 0 0 0 0 0 0 0 0 0 0 0 0 0 0 0 0 0 0 0 0
0 0 0 0 0 0 0 0 0 0 0 0 0 0 0 0 0 0 0 0 0 0 0 0 0 0 0 0 0 0 0 0 0 0 0 0 0 0 0 0 0 0 0
0 0 0 0 0 0 0 0 0 0 0 0 0 0 0 0 0 0 0 0 0 0 0 0 0 0 0 0 0 0 0 0 0 0 0 0 0 0 0 0 0 0 0
Wind_Speed_500mb
14 14 15 16 15 16 15 15 16 16 16 16 17 17 17 20 23 26 28 28 29 30 30 29 28 28 30 32 33 35 35 35 38 40 40 37 37 33 32 30 33 35 37
18 17 17 17 17 17 18 18 18 18 17 18 18 21 23 25 27 30 33 34 32 34 34 33 33 34 35 37 38 38 39 38 38 42 44 43 41 41 40 39 39 42 42
19 18 19 18 18 19 19 20 18 18 20 22 22 25 26 28 31 33 35 35 36 34 34 37 37 37 39 40 42 43 43 41 43 44 44 45 47 47 44 47 46 48 45
23 23 22 21 20 21 21 20 20 20 23 24 26 30 33 33 32 30 30 33 33 36 36 34 37 41 41 40 40 40 41 42 41 45 46 48 49 48 47 49 50 50 49
27 26 24 21 21 21 21 22 22 24 26 28 31 34 35 35 37 34 25 21 22 26 28 30 31 34 36 35 34 35 36 39 41 43 47 47 47 46 46 51 50 47 46
26 26 24 21 23 24 23 24 26 28 31 31 35 39 39 35 30 27 32 18 19 39 29 26 36 39 33 33 34 34 33 36 38 41 42 42 40 43 42 42 40 41 42
28 28 28 27 27 28 27 26 29 30 30 30 39 39 35 32 35 26 18 47 53 42 43 46 43 43 38 42 40 40 40 39 39 37 35 40 41 42 43 43 39 43 49
33 33 32 32 33 34 31 26 28 30 32 26 32 39 26 39 24 29 53 40 53 48 52 49 45 44 50 51 51 45 46 47 43 42 42 43 46 47 45 43 45 49 50
23 21 21 17 17 21 23 24 26 29 32 33 29 26 19 18 40 32 42 48 56 55 56 49 50 48 52 57 57 53 51 50 52 50 48 50 52 55 53 53 51 51 55
29 27 27 28 29 30 31 31 32 34 35 33 33 34 34 36 45 45 41 45 54 54 53 45 52 50 49 51 56 56 58 52 51 55 56 57 55 55 58 54 56 57 60
32 33 36 37 36 33 33 33 34 33 35 37 39 37 35 38 38 49 54 55 55 54 56 61 42 43 39 47 49 46 49 46 51 54 61 62 63 62 58 55 60 70 65
33 34 32 32 33 34 35 35 33 31 29 30 30 32 33 38 48 50 53 59 56 63 51 55 56 53 40 53 44 48 44 51 51 57 61 62 62 58 62 66 65 69 71
43 41 39 38 35 35 31 29 29 31 31 30 26 34 35 36 43 46 53 55 51 48 52 46 48 51 60 49 44 43 49 53 53 53 55 58 62 64 67 70 67 68 68
40 29 21 23 21 24 27 29 32 33 34 35 37 40 43 44 46 49 49 56 66 55 54 44 46 43 39 40 50 66 63 60 64 63 63 62 68 70 70 71 71 70 67
8 12 15 17 19 23 22 26 26 28 27 27 28 28 28 32 37 39 41 49 50 49 44 32 25 31 46 61 58 59 56 57 58 60 61 62 67 69 70 71 69 66 70
34 40 42 40 40 35 23 17 13 13 16 18 21 24 26 29 32 36 38 41 42 47 44 38 55 61 61 59 57 59 60 62 61 58 61 65 69 71 71 68 68 67 67
28 31 29 22 17 12 10 11 13 15 17 20 21 24 26 30 33 37 40 42 44 48 61 68 64 66 66 67 65 62 61 63 65 61 64 68 71 69 69 69 70 69 68
28 23 17 14 12 10 8 11 15 17 18 22 24 27 32 37 39 43 47 49 50 49 58 72 72 69 71 71 70 70 66 62 65 62 61 64 67 66 65 66 67 67 69
22 22 17 11 8 10 12 15 17 21 24 29 33 37 41 43 46 47 47 49 51 52 54 66 74 70 71 69 71 67 69 67 64 63 62 60 61 63 67 67 68 70 71
16 14 8 8 9 12 15 17 21 25 29 33 37 40 44 45 46 46 45 45 48 51 53 58 63 67 65 62 66 72 77 78 80 76 75 70 59 57 58 60 63 63 65
11 8 8 10 13 17 22 26 29 32 33 34 35 36 39 42 45 45 45 43 46 50 53 56 60 60 62 68 69 72 82 85 86 80 66 71 71 73 72 69 66 63 61
10 10 12 15 18 22 25 28 31 34 35 35 35 35 37 40 39 41 43 43 47 51 53 54 55 61 63 64 70 73 78 81 75 63 72 88 82 84 76 74 70 65 65
9 10 13 17 21 25 29 31 32 35 37 38 40 41 42 44 47 47 48 47 46 49 52 51 55 53 60 59 65 68 69 73 77 86 86 96 84 84 76 74 69 63 63
6 10 15 19 23 28 34 37 38 37 38 39 41 41 40 41 45 49 51 50 49 51 52 53 55 58 60 62 64 68 72 77 80 77 69 77 73 77 75 69 62 58 56
8 13 18 23 28 31 33 35 35 36 36 36 37 39 39 40 43 48 52 54 54 51 55 58 60 61 59 58 56 59 64 63 72 69 72 57 58 72 81 79 53 47 50
13 16 19 21 23 26 28 30 32 33 31 29 31 35 39 41 44 47 50 50 53 56 59 60 59 59 60 60 57 55 58 57 62 66 32 58 60 63 51 48 35 33 53
Wind_Direction_500mb
217 221 226 232 239 252 258 262 268 278 291 298 304 305 303 302 301 302 301 298 298 298 295 293 290 292 294 295 297 296 291 287 289 291 291 287 283 284 282 285 282 285 285
228 235 245 250 256 261 267 272 280 288 290 295 298 300 305 303 302 303 302 302 300 298 296 295 295 294 295 297 297 294 292 290 288 287 288 289 286 284 282 278 281 281 281
239 246 252 258 262 262 267 277 285 290 295 298 300 301 297 301 307 310 307 307 304 299 296 296 297 299 298 296 296 295 292 288 288 288 286 284 279 275 277 277 279 279 278
240 245 249 254 257 263 266 274 279 286 296 299 300 302 304 307 309 311 312 311 310 307 303 299 297 299 301 300 300 299 297 292 286 286 287 284 281 275 271 275 277 278 277
242 246 249 249 250 255 263 270 280 287 289 294 299 299 301 306 312 309 308 317 325 331 322 314 310 306 303 299 297 299 300 300 295 286 285 285 284 279 273 271 272 274 276
237 242 244 245 247 253 260 271 278 281 288 298 302 304 310 314 315 321 306 297 314 323 313 312 310 307 302 302 298 295 296 299 298 295 292 289 286 284 278 283 271 271 275
234 237 242 249 256 260 262 265 275 282 288 304 309 315 309 306 315 317 331 311 314 318 313 320 312 308 299 300 297 295 293 294 296 289 286 287 286 281 280 278 271 280 284
238 245 252 251 250 259 264 267 276 281 286 293 297 309 315 310 293 303 309 311 315 318 318 315 316 313 308 304 299 292 289 290 293 291 284 288 289 287 278 275 274 278 285
229 237 245 255 258 262 269 275 277 279 286 290 289 288 300 290 304 303 295 304 311 312 313 311 306 303 307 306 304 298 288 286 285 288 287 284 284 287 286 282 283 284 290
242 245 250 256 259 263 264 267 270 276 282 290 290 283 283 286 298 302 300 298 309 306 313 307 309 307 303 303 303 302 301 289 283 283 282 281 281 281 284 286 286 289 288
243 247 252 253 256 260 266 268 271 270 272 274 278 282 285 292 293 288 293 303 301 303 305 306 308 309 310 310 311 305 299 292 289 280 282 279 278 277 279 284 293 283 280
240 240 248 247 248 253 260 266 270 274 282 285 288 291 289 296 296 295 293 296 297 303 304 299 315 307 308 313 301 302 297 290 287 283 281 277 280 281 277 276 276 280 281
240 241 244 248 253 257 260 269 272 274 282 279 281 287 287 289 293 288 295 296 299 302 300 301 302 300 305 303 295 292 296 291 291 286 284 282 274 275 274 276 280 283 283
238 239 247 253 261 270 274 280 284 285 285 278 286 281 285 285 279 284 286 295 297 299 294 296 298 295 289 283 284 297 293 285 287 288 289 287 282 281 280 274 277 279 280
295 280 266 260 264 268 273 284 283 291 288 291 284 284 291 291 287 287 283 285 292 303 305 310 296 280 285 292 302 302 299 292 288 286 282 279 279 280 280 279 277 276 279
284 276 275 277 278 274 269 259 269 280 280 284 284 286 288 289 294 296 297 297 298 299 295 290 294 302 306 306 306 305 303 301 297 290 286 285 283 282 283 284 280 283 282
249 254 250 232 235 235 244 261 268 272 277 288 299 300 299 301 301 300 300 301 301 301 298 301 305 308 308 310 311 308 306 303 301 300 296 292 287 284 286 285 284 283 285
219 214 212 209 213 226 260 285 291 293 295 294 297 299 302 304 303 304 304 304 304 304 304 304 305 308 307 310 309 307 304 302 299 299 297 294 293 290 286 282 283 286 287
189 190 191 219 253 285 288 287 290 292 295 300 302 303 303 303 303 302 303 303 302 301 300 298 300 304 305 309 309 308 306 304 299 299 298 298 294 289 284 284 281 279 279
191 200 198 232 256 270 281 287 295 300 305 306 308 310 310 309 307 305 305 304 303 302 301 299 302 305 310 314 312 315 313 315 313 313 312 308 302 295 293 291 287 285 284
189 226 243 264 279 287 292 303 308 309 310 311 310 309 307 305 305 306 306 308 309 308 307 308 308 310 314 318 316 314 312 311 310 312 310 305 303 301 300 297 292 289 287
213 246 273 283 296 302 308 312 313 312 310 309 310 309 308 307 308 308 310 314 314 312 309 309 309 310 311 310 309 309 309 312 316 309 306 304 308 305 304 300 297 292 286
239 274 290 301 307 311 312 315 318 319 317 316 316 316 314 313 311 309 309 311 311 308 306 308 305 305 304 308 306 307 308 308 304 306 308 306 309 305 304 300 298 294 287
273 298 311 320 324 326 324 323 322 320 318 318 315 312 310 310 311 310 310 308 306 307 308 309 307 310 312 312 310 307 306 307 306 308 311 302 308 303 302 303 304 301 295
323 331 332 334 332 331 328 325 322 318 317 318 316 314 314 313 311 310 311 311 308 308 308 308 308 309 310 308 307 303 302 304 303 306 312 303 304 306 306 307 306 301 294
346 345 342 335 332 328 324 321 321 319 320 317 314 314 316 317 316 318 320 319 317 315 310 306 305 305 307 307 305 304 307 306 304 309 301 301 302 307 308 299 302 287 291
Wind_Speed_850mb
14 14 15 16 15 16 15 15 16 16 16 16 17 17 17 20 23 26 28 28 29 30 30 29 28 28 30 32 33 35 35 35 38 40 40 37 37 33 32 30 33 35 37
18 17 17 17 17 17 18 18 18 18 17 18 18 21 23 25 27 30 33 34 32 34 34 33 33 34 35 37 38 38 39 38 38 42 44 43 41 41 40 39 39 42 42
19 18 19 18 18 19 19 20 18 18 20 22 22 25 26 28 31 33 35 35 36 34 34 37 37 37 39 40 42 43 43 41 43 44 44 45 47 47 44 47 46 48 45
23 23 22 21 20 21 21 20 20 20 23 24 26 30 33 33 32 30 30 33 33 36 36 34 37 41 41 40 40 40 41 42 41 45 46 48 49 48 47 49 50 50 49
27 26 24 21 21 21 21 22 22 24 26 28 31 34 35 35 37 34 25 21 22 26 28 30 31 34 36 35 34 35 36 39 41 43 47 47 47 46 46 51 50 47 46
26 26 24 21 23 24 23 24 26 28 31 31 35 39 39 35 30 27 32 18 19 39 29 26 36 39 33 33 34 34 33 36 38 41 42 42 40 43 42 42 40 41 42
28 28 28 27 27 28 27 26 29 30 30 30 39 39 35 32 35 26 18 47 53 42 43 46 43 43 38 42 40 40 40 39 39 37 35 40 41 42 43 43 39 43 49
33 33 32 32 33 34 31 26 28 30 32 26 32 39 26 39 24 29 53 40 53 48 52 49 45 44 50 51 51 45 46 47 43 42 42 43 46 47 45 43 45 49 50
23 21 21 17 17 21 23 24 26 29 32 33 29 26 19 18 40 32 42 48 56 55 56 49 50 48 52 57 57 53 51 50 52 50 48 50 52 55 53 53 51 51 55
29 27 27 28 29 30 31 31 32 34 35 33 33 34 34 36 45 45 41 45 54 54 53 45 52 50 49 51 56 56 58 52 51 55 56 57 55 55 58 54 56 57 60
32 33 36 37 36 33 33 33 34 33 35 37 39 37 35 38 38 49 54 55 55 54 56 61 42 43 39 47 49 46 49 46 51 54 61 62 63 62 58 55 60 70 65
33 34 32 32 33 34 35 35 33 31 29 30 30 32 33 38 48 50 53 59 56 63 51 55 56 53 40 53 44 48 44 51 51 57 61 62 62 58 62 66 65 69 71
43 41 39 38 35 35 31 29 29 31 31 30 26 34 35 36 43 46 53 55 51 48 52 46 48 51 60 49 44 43 49 53 53 53 55 58 62 64 67 70 67 68 68
40 29 21 23 21 24 27 29 32 33 34 35 37 40 43 44 46 49 49 56 66 55 54 44 46 43 39 40 50 66 63 60 64 63 63 62 68 70 70 71 71 70 67
8 12 15 17 19 23 22 26 26 28 27 27 28 28 28 32 37 39 41 49 50 49 44 32 25 31 46 61 58 59 56 57 58 60 61 62 67 69 70 71 69 66 70
34 40 42 40 40 35 23 17 13 13 16 18 21 24 26 29 32 36 38 41 42 47 44 38 55 61 61 59 57 59 60 62 61 58 61 65 69 71 71 68 68 67 67
28 31 29 22 17 12 10 11 13 15 17 20 21 24 26 30 33 37 40 42 44 48 61 68 64 66 66 67 65 62 61 63 65 61 64 68 71 69 69 69 70 69 68
28 23 17 14 12 10 8 11 15 17 18 22 24 27 32 37 39 43 47 49 50 49 58 72 72 69 71 71 70 70 66 62 65 62 61 64 67 66 65 66 67 67 69
22 22 17 11 8 10 12 15 17 21 24 29 33 37 41 43 46 47 47 49 51 52 54 66 74 70 71 69 71 67 69 67 64 63 62 60 61 63 67 67 68 70 71
16 14 8 8 9 12 15 17 21 25 29 33 37 40 44 45 46 46 45 45 48 51 53 58 63 67 65 62 66 72 77 78 80 76 75 70 59 57 58 60 63 63 65
11 8 8 10 13 17 22 26 29 32 33 34 35 36 39 42 45 45 45 43 46 50 53 56 60 60 62 68 69 72 82 85 86 80 66 71 71 73 72 69 66 63 61
10 10 12 15 18 22 25 28 31 34 35 35 35 35 37 40 39 41 43 43 47 51 53 54 55 61 63 64 70 73 78 81 75 63 72 88 82 84 76 74 70 65 65
9 10 13 17 21 25 29 31 32 35 37 38 40 41 42 44 47 47 48 47 46 49 52 51 55 53 60 59 65 68 69 73 77 86 86 96 84 84 76 74 69 63 63
6 10 15 19 23 28 34 37 38 37 38 39 41 41 40 41 45 49 51 50 49 51 52 53 55 58 60 62 64 68 72 77 80 77 69 77 73 77 75 69 62 58 56
8 13 18 23 28 31 33 35 35 36 36 36 37 39 39 40 43 48 52 54 54 51 55 58 60 61 59 58 56 59 64 63 72 69 72 57 58 72 81 79 53 47 50
13 16 19 21 23 26 28 30 32 33 31 29 31 35 39 41 44 47 50 50 53 56 59 60 59 59 60 60 57 55 58 57 62 66 32 58 60 63 51 48 35 33 53
Wind_Direction_850mb
217 221 226 232 239 252 258 262 268 278 291 298 304 305 303 302 301 302 301 298 298 298 295 293 290 292 294 295 297 296 291 287 289 291 291 287 283 284 282 285 282 285 285
228 235 245 250 256 261 267 272 280 288 290 295 298 300 305 303 302 303 302 302 300 298 296 295 295 294 295 297 297 294 292 290 288 287 288 289 286 284 282 278 281 281 281
239 246 252 258 262 262 267 277 285 290 295 298 300 301 297 301 307 310 307 307 304 299 296 296 297 299 298 296 296 295 292 288 288 288 286 284 279 275 277 277 279 279 278
240 245 249 254 257 263 266 274 279 286 296 299 300 302 304 307 309 311 312 311 310 307 303 299 297 299 301 300 300 299 297 292 286 286 287 284 281 275 271 275 277 278 277
242 246 249 249 250 255 263 270 280 287 289 294 299 299 301 306 312 309 308 317 325 331 322 314 310 306 303 299 297 299 300 300 295 286 285 285 284 279 273 271 272 274 276
237 242 244 245 247 253 260 271 278 281 288 298 302 304 310 314 315 321 306 297 314 323 313 312 310 307 302 302 298 295 296 299 298 295 292 289 286 284 278 283 271 271 275
234 237 242 249 256 260 262 265 275 282 288 304 309 315 309 306 315 317 331 311 314 318 313 320 312 308 299 300 297 295 293 294 296 289 286 287 286 281 280 278 271 280 284
238 245 252 251 250 259 264 267 276 281 286 293 297 309 315 310 293 303 309 311 315 318 318 315 316 313 308 304 299 292 289 290 293 291 284 288 289 287 278 275 274 278 285
229 237 245 255 258 262 269 275 277 279 286 290 289 288 300 290 304 303 295 304 311 312 313 311 306 303 307 306 304 298 288 286 285 288 287 284 284 287 286 282 283 284 290
242 245 250 256 259 263 264 267 270 276 282 290 290 283 283 286 298 302 300 298 309 306 313 307 309 307 303 303 303 302 301 289 283 283 282 281 281 281 284 286 286 289 288
243 247 252 253 256 260 266 268 271 270 272 274 278 282 285 292 293 288 293 303 301 303 305 306 308 309 310 310 311 305 299 292 289 280 282 279 278 277 279 284 293 283 280
240 240 248 247 248 253 260 266 270 274 282 285 288 291 289 296 296 295 293 296 297 303 304 299 315 307 308 313 301 302 297 290 287 283 281 277 280 281 277 276 276 280 281
240 241 244 248 253 257 260 269 272 274 282 279 281 287 287 289 293 288 295 296 299 302 300 301 302 300 305 303 295 292 296 291 291 286 284 282 274 275 274 276 280 283 283
238 239 247 253 261 270 274 280 284 285 285 278 286 281 285 285 279 284 286 295 297 299 294 296 298 295 289 283 284 297 293 285 287 288 289 287 282 281 280 274 277 279 280
295 280 266 260 264 268 273 284 283 291 288 291 284 284 291 291 287 287 283 285 292 303 305 310 296 280 285 292 302 302 299 292 288 286 282 279 279 280 280 279 277 276 279
284 276 275 277 278 274 269 259 269 280 280 284 284 286 288 289 294 296 297 297 298 299 295 290 294 302 306 306 306 305 303 301 297 290 286 285 283 282 283 284 280 283 282
249 254 250 232 235 235 244 261 268 272 277 288 299 300 299 301 301 300 300 301 301 301 298 301 305 308 308 310 311 308 306 303 301 300 296 292 287 284 286 285 284 283 285
219 214 212 209 213 226 260 285 291 293 295 294 297 299 302 304 303 304 304 304 304 304 304 304 305 308 307 310 309 307 304 302 299 299 297 294 293 290 286 282 283 286 287
189 190 191 219 253 285 288 287 290 292 295 300 302 303 303 303 303 302 303 303 302 301 300 298 300 304 305 309 309 308 306 304 299 299 298 298 294 289 284 284 281 279 279
191 200 198 232 256 270 281 287 295 300 305 306 308 310 310 309 307 305 305 304 303 302 301 299 302 305 310 314 312 315 313 315 313 313 312 308 302 295 293 291 287 285 284
189 226 243 264 279 287 292 303 308 309 310 311 310 309 307 305 305 306 306 308 309 308 307 308 308 310 314 318 316 314 312 311 310 312 310 305 303 301 300 297 292 289 287
213 246 273 283 296 302 308 312 313 312 310 309 310 309 308 307 308 308 310 314 314 312 309 309 309 310 311 310 309 309 309 312 316 309 306 304 308 305 304 300 297 292 286
239 274 290 301 307 311 312 315 318 319 317 316 316 316 314 313 311 309 309 311 311 308 306 308 305 305 304 308 306 307 308 308 304 306 308 306 309 305 304 300 298 294 287
273 298 311 320 324 326 324 323 322 320 318 318 315 312 310 310 311 310 310 308 306 307 308 309 307 310 312 312 310 307 306 307 306 308 311 302 308 303 302 303 304 301 295
323 331 332 334 332 331 328 325 322 318 317 318 316 314 314 313 311 310 311 311 308 308 308 308 308 309 310 308 307 303 302 304 303 306 312 303 304 306 306 307 306 301 294
346 345 342 335 332 328 324 321 321 319 320 317 314 314 316 317 316 318 320 319 317 315 310 306 305 305 307 307 305 304 307 306 304 309 301 301 302 307 308 299 302 287 291